TimeMDT,TemperatureF,Dew PointF,Humidity,Sea Level PressureIn,VisibilityMPH,Wind Direction,Wind SpeedMPH,Gust SpeedMPH,PrecipitationIn,Events,Conditions,WindDirDegrees,DateUTC
12:15 AM,52.9,31.1,43,30.22,10.0,SSE,4.6,-,N/A,,Scattered Clouds,150,2013-05-12 06:15:00
12:35 AM,51.8,31.8,47,30.21,10.0,ESE,6.9,-,N/A,,Scattered Clouds,120,2013-05-12 06:35:00
12:55 AM,50.9,32.2,49,30.19,10.0,ESE,3.5,-,N/A,,Scattered Clouds,110,2013-05-12 06:55:00
1:15 AM,49.6,32.7,52,30.20,10.0,East,5.8,-,N/A,,Scattered Clouds,80,2013-05-12 07:15:00
1:35 AM,48.6,33.6,56,30.19,10.0,ESE,6.9,-,N/A,,Scattered Clouds,110,2013-05-12 07:35:00
1:55 AM,47.3,33.6,59,30.18,10.0,ESE,5.8,-,N/A,,Clear,110,2013-05-12 07:55:00
2:15 AM,45.9,34.2,64,30.18,10.0,East,3.5,-,N/A,,Clear,100,2013-05-12 08:15:00
2:35 AM,45.1,34.0,65,30.17,10.0,East,3.5,-,N/A,,Clear,90,2013-05-12 08:35:00
2:55 AM,45.5,33.8,64,30.17,10.0,Calm,Calm,-,N/A,,Clear,0,2013-05-12 08:55:00
3:35 AM,44.6,34.0,66,30.16,10.0,Calm,Calm,-,N/A,,Scattered Clouds,0,2013-05-12 09:35:00
3:55 AM,43.5,34.2,70,30.15,10.0,East,3.5,-,N/A,,Clear,100,2013-05-12 09:55:00
4:15 AM,43.0,34.0,71,30.15,10.0,Calm,Calm,-,N/A,,Clear,0,2013-05-12 10:15:00
4:35 AM,42.1,33.4,71,30.13,10.0,Calm,Calm,-,N/A,,Scattered Clouds,0,2013-05-12 10:35:00
4:55 AM,41.5,33.6,73,30.13,10.0,Calm,Calm,-,N/A,,Scattered Clouds,0,2013-05-12 10:55:00
5:15 AM,40.6,33.8,77,30.13,10.0,Calm,Calm,-,N/A,,Scattered Clouds,0,2013-05-12 11:15:00
5:35 AM,40.3,33.8,78,30.13,10.0,Calm,Calm,-,N/A,,Clear,0,2013-05-12 11:35:00
5:55 AM,39.7,34.3,81,30.13,10.0,ENE,4.6,-,N/A,,Clear,60,2013-05-12 11:55:00
6:15 AM,41.4,35.1,78,30.13,10.0,East,3.5,-,N/A,,Clear,80,2013-05-12 12:15:00
6:35 AM,43.2,35.2,74,30.14,10.0,East,5.8,-,N/A,,Clear,100,2013-05-12 12:35:00
6:55 AM,44.6,35.2,70,30.14,10.0,ESE,4.6,-,N/A,,Clear,120,2013-05-12 12:55:00
7:15 AM,45.1,35.6,69,30.14,10.0,East,4.6,-,N/A,,Clear,90,2013-05-12 13:15:00
7:35 AM,46.8,36.5,67,30.14,10.0,East,3.5,-,N/A,,Clear,90,2013-05-12 13:35:00
7:55 AM,47.8,37.8,68,30.14,10.0,Calm,Calm,-,N/A,,Clear,0,2013-05-12 13:55:00
8:15 AM,49.6,38.8,66,30.14,10.0,Calm,Calm,-,N/A,,Clear,0,2013-05-12 14:15:00
8:35 AM,51.8,39.7,63,30.15,10.0,Calm,Calm,-,N/A,,Clear,0,2013-05-12 14:35:00
8:55 AM,54.1,41.5,62,30.15,10.0,Calm,Calm,-,N/A,,Clear,0,2013-05-12 14:55:00
9:15 AM,56.5,41.4,57,30.15,10.0,NE,4.6,-,N/A,,Clear,50,2013-05-12 15:15:00
9:35 AM,57.6,41.0,54,30.14,10.0,Calm,Calm,-,N/A,,Clear,0,2013-05-12 15:35:00
9:55 AM,59.7,41.7,51,30.13,10.0,Calm,Calm,-,N/A,,Clear,0,2013-05-12 15:55:00
10:15 AM,61.9,41.9,48,30.13,10.0,Calm,Calm,-,N/A,,Clear,0,2013-05-12 16:15:00
10:35 AM,64.6,43.0,45,30.13,10.0,NNW,4.6,-,N/A,,Clear,330,2013-05-12 16:35:00
10:55 AM,65.7,43.0,44,30.13,10.0,North,5.8,-,N/A,,Clear,350,2013-05-12 16:55:00
11:15 AM,67.5,41.9,39,30.13,10.0,Calm,Calm,-,N/A,,Clear,0,2013-05-12 17:15:00
11:35 AM,68.7,40.6,36,30.12,10.0,NE,5.8,-,N/A,,Clear,40,2013-05-12 17:35:00
11:55 AM,70.0,40.3,34,30.12,10.0,NE,4.6,-,N/A,,Clear,40,2013-05-12 17:55:00
12:15 PM,71.2,40.8,33,30.11,10.0,East,4.6,-,N/A,,Clear,100,2013-05-12 18:15:00
12:35 PM,72.0,37.6,29,30.11,10.0,Calm,Calm,-,N/A,,Clear,0,2013-05-12 18:35:00
12:55 PM,73.2,37.2,27,30.11,10.0,Calm,Calm,-,N/A,,Clear,0,2013-05-12 18:55:00
1:15 PM,74.5,38.7,27,30.11,10.0,WNW,3.5,-,N/A,,Clear,290,2013-05-12 19:15:00
1:35 PM,75.2,35.2,23,30.11,10.0,NNE,5.8,-,N/A,,Clear,20,2013-05-12 19:35:00
1:55 PM,74.7,35.2,24,30.10,10.0,NW,3.5,9.2,N/A,,Clear,310,2013-05-12 19:55:00
2:15 PM,75.6,35.2,23,30.10,10.0,NW,6.9,-,N/A,,Clear,320,2013-05-12 20:15:00
2:35 PM,76.3,36.1,23,30.10,10.0,West,5.8,-,N/A,,Clear,260,2013-05-12 20:35:00
2:55 PM,76.8,36.7,23,30.09,10.0,ENE,3.5,-,N/A,,Clear,70,2013-05-12 20:55:00
3:15 PM,77.2,35.6,22,30.08,10.0,Calm,Calm,-,N/A,,Clear,0,2013-05-12 21:15:00
3:35 PM,76.6,35.2,22,30.07,10.0,NNE,3.5,-,N/A,,Clear,20,2013-05-12 21:35:00
3:55 PM,76.6,34.5,22,30.06,10.0,ESE,4.6,-,N/A,,Clear,120,2013-05-12 21:55:00
4:15 PM,77.5,34.3,21,30.06,10.0,Calm,Calm,-,N/A,,Scattered Clouds,0,2013-05-12 22:15:00
4:35 PM,77.5,34.3,21,30.05,10.0,Calm,Calm,-,N/A,,Scattered Clouds,0,2013-05-12 22:35:00
4:55 PM,78.8,34.9,20,30.05,10.0,NNW,4.6,-,N/A,,Scattered Clouds,340,2013-05-12 22:55:00
5:15 PM,78.8,34.5,20,30.04,10.0,ENE,3.5,-,N/A,,Clear,70,2013-05-12 23:15:00
5:35 PM,77.0,33.1,20,30.04,10.0,Calm,Calm,-,N/A,,Clear,0,2013-05-12 23:35:00
5:55 PM,77.0,34.0,21,30.04,10.0,Calm,Calm,-,N/A,,Clear,0,2013-05-12 23:55:00
6:15 PM,76.3,35.8,23,30.04,10.0,ESE,5.8,-,N/A,,Clear,120,2013-05-13 00:15:00
6:35 PM,76.1,37.2,24,30.03,10.0,ESE,5.8,-,N/A,,Clear,120,2013-05-13 00:35:00
6:55 PM,74.5,37.2,26,30.03,10.0,ESE,5.8,-,N/A,,Clear,120,2013-05-13 00:55:00
7:15 PM,73.4,38.1,28,30.03,10.0,ESE,4.6,-,N/A,,Clear,120,2013-05-13 01:15:00
7:35 PM,71.2,40.1,32,30.03,10.0,ESE,5.8,-,N/A,,Clear,110,2013-05-13 01:35:00
7:55 PM,69.4,39.7,34,30.03,10.0,SE,3.5,-,N/A,,Clear,130,2013-05-13 01:55:00
8:15 PM,66.9,40.8,39,30.03,10.0,ESE,3.5,-,N/A,,Clear,120,2013-05-13 02:15:00
8:35 PM,65.3,39.7,39,30.04,10.0,SE,4.6,-,N/A,,Clear,130,2013-05-13 02:35:00
8:55 PM,66.2,37.2,34,30.04,10.0,SSE,8.1,-,N/A,,Clear,150,2013-05-13 02:55:00
9:15 PM,65.1,37.2,36,30.04,10.0,SSE,8.1,-,N/A,,Clear,160,2013-05-13 03:15:00
9:35 PM,63.5,38.3,39,30.05,10.0,SSE,5.8,-,N/A,,Clear,160,2013-05-13 03:35:00
9:55 PM,62.6,38.5,41,30.05,10.0,SSE,3.5,-,N/A,,Clear,150,2013-05-13 03:55:00
10:15 PM,61.2,39.0,44,30.05,10.0,Calm,Calm,-,N/A,,Clear,0,2013-05-13 04:15:00
10:35 PM,61.0,38.7,44,30.05,10.0,East,3.5,-,N/A,,Clear,100,2013-05-13 04:35:00
10:55 PM,61.0,38.7,44,30.05,10.0,ESE,4.6,-,N/A,,Clear,110,2013-05-13 04:55:00
11:15 PM,60.3,39.0,45,30.05,10.0,Calm,Calm,-,N/A,,Clear,0,2013-05-13 05:15:00
11:35 PM,59.9,39.6,47,30.05,10.0,Calm,Calm,-,N/A,,Clear,0,2013-05-13 05:35:00
11:55 PM,60.6,39.4,45,30.05,10.0,Calm,Calm,-,N/A,,Clear,0,2013-05-13 05:55:00